Location: B�o
(43.0167°N, 0.0667°W)
Time: 20:11:59
(UTC+00:00)

Daily predictions for brighter satellites

Satellite Brightness Start Highest point End
(mag) Time Altitude Azimuth Time Altitude Azimuth Time Altitude Azimuth
ATLAS 5 CENTAUR R/B 3.5 19:35:48 10° NNW 19:40:38 30° NE 19:46:12 10° ESE
Cosmos 921 Rocket 3.6 19:36:37 10° NNW 19:40:48 59° WSW 19:44:56 10° S
Cosmos 1844 4.1 19:36:18 10° S 19:41:37 41° ESE 19:46:55 10° NE
Cosmos 1408 Rocket 3.8 19:37:44 10° NNW 19:42:08 76° W 19:46:33 10° S
OBJECT-B 0.8 19:39:15 10° SSE 19:42:27 66° ENE 19:45:41 10° N
Cosmos 1842 Rocket 3.9 19:40:57 10° SSW 19:45:26 77° W 19:49:56 10° N
MetOp-A 4.3 19:40:28 10° S 19:45:49 80° WSW 19:51:13 10° NNW
IRS-1A Rocket 4.5 19:44:51 10° SSE 19:50:30 62° ENE 19:56:17 10° N
Cosmos 2208 Rocket 4.5 19:48:16 10° NNW 19:53:40 68° WSW 19:59:03 10° S
CZ-4 R/B 4.4 19:52:40 10° SW 19:54:55 14° W 19:57:09 10° WNW
Cosmos 1242 Rocket 3.9 19:53:02 10° SE 19:55:49 21° E 19:58:35 10° NE
Cosmos 1805 Rocket 3.9 19:56:16 10° N 20:00:29 48° ENE 20:04:42 10° SSE
FALCON 9 DEB 3.4 20:03:59 10° WNW 20:06:57 48° SW 20:09:21 14° SSE
DELTA 2 R/B (1) 3.8 20:02:05 10° W 20:07:32 57° S 20:12:22 13° ESE
Cosmos 1633 Rocket 4.5 20:04:34 10° NNE 20:08:03 22° ENE 20:10:42 14° ESE
ARIANE 5 R/B 4.5 20:06:13 10° E 20:08:46 16° ENE 20:11:20 10° NNE
USA 290 3.1 20:09:53 10° N 20:12:53 34° ENE 20:14:52 17° ESE
IGS 5A 4.0 20:11:11 14° SE 20:14:26 41° ENE 20:18:21 10° N
Cosmos 1743 Rocket 4.0 20:10:30 10° NNW 20:14:48 63° W 20:19:06 10° S
Intercosmos 25 Rocket 3.9 20:09:09 10° N 20:15:28 87° E 20:19:25 10° S
Resurs 1-3 3.6 20:12:12 10° SSE 20:16:35 89° E 20:21:00 10° NNW
Cosmos 1745 Rocket 4.0 20:11:49 10° N 20:18:01 71° E 20:24:08 10° SSE
Cosmos 1933 3.5 20:14:14 10° S 20:18:09 51° E 20:22:05 10° NNE
Cosmos 1503 Rocket 4.1 20:13:52 10° S 20:18:52 53° ESE 20:23:56 10° NNE
Cosmos 1709 Rocket 4.4 20:14:51 10° N 20:20:38 43° ENE 20:25:15 16° SE
Cosmos 1437 Rocket 2.9 20:17:04 10° SSW 20:20:54 74° W 20:24:51 10° N
X-37B 1.0 20:18:32 10° WNW 20:21:43 61° N 20:24:16 15° E
Cosmos 2082 Rocket 4.3 20:25:25 10° NNE 20:28:14 14° NE 20:31:02 10° ENE
Ariane Rocket 3.4 20:26:05 10° S 20:31:04 62° WSW 20:36:07 10° NNW
Meteor 1-20 Rocket 4.2 20:26:54 10° N 20:32:32 75° E 20:37:10 15° SSE
Cosmos 1666 Rocket 3.8 20:30:29 10° N 20:34:47 50° ENE 20:37:20 22° SE
IRIS 3.9 20:32:28 10° W 20:34:50 55° S 20:35:51 32° ESE
S3M 4.1 20:29:47 10° S 20:36:11 85° W 20:42:34 10° N
Cosmos 2315 Rocket 4.2 20:31:36 10° SSE 20:37:40 54° E 20:43:51 10° NNE
Cosmos 1782 3.1 20:36:20 20° SSE 20:38:47 47° E 20:42:37 10° NNE
Landsat 7 3.8 20:35:42 19° SSE 20:39:09 70° ENE 20:43:53 10° N
USA 245 3.6 20:42:52 22° ENE 20:42:52 22° ENE 20:44:25 10° NNE
SPOT 1/Viking Rocket 3.7 20:45:30 23° SE 20:48:41 60° ENE 20:53:49 10° N
Cosmos 1354 Rocket 3.9 20:45:32 10° SSW 20:50:45 88° ESE 20:56:02 10° NNE
SJ 16-02 2.9 20:52:10 19° E 20:52:10 19° E 20:55:00 10° NE
Cosmos 1602 3.6 20:48:24 10° N 20:52:16 76° E 20:54:02 31° SSE
Cosmos 2278 Rocket 2.9 20:50:06 24° SE 20:52:23 33° ESE 20:57:23 10° NE
Sich 1 3.6 20:50:02 10° NNW 20:54:16 56° W 20:57:44 15° S
Resurs 01 Rocket 2.1 20:53:04 17° S 20:56:26 59° W 21:00:51 10° NNW
CRYOSAT 2 4.3 20:56:19 24° SSE 20:59:14 75° E 21:04:09 10° N
MetOp-B 4.1 20:57:13 22° SSE 21:00:48 85° WSW 21:06:12 10° NNW
Cosmos 1844 Rocket 4.2 20:56:53 10° SW 21:02:02 38° WNW 21:07:14 10° N
SPOT 3 Rocket 3.9 20:58:44 17° S 21:02:37 63° WSW 21:07:45 10° NNW
NOSS 3-3 (A) 3.7 21:00:05 10° SSW 21:05:45 81° ESE 21:12:12 10° NE
NOSS 3-3 (C) 3.7 21:00:12 10° SSW 21:05:51 81° SE 21:12:19 10° NE
ATLAS 2AS CENTAUR R/B 4.4 21:05:03 10° NNW 21:11:09 26° NNE 21:16:52 10° E
SL-4 R/B 3.9 21:09:25 10° W 21:13:01 24° SW 21:14:33 20° SSW
Cosmos 1151 Rocket 3.3 21:09:49 18° SSW 21:13:03 69° W 21:17:26 10° N
BREEZE-M R/B 3.9 21:14:29 10° WNW 21:16:41 27° NNW 21:18:26 14° NE
Cosmos 1812 2.7 21:16:50 54° SE 21:17:16 59° E 21:21:05 10° NNE
CZ-4C R/B 3.2 21:12:00 10° NNW 21:19:14 65° NE 21:23:48 29° ESE
Iridium 4 Rocket 4.0 21:18:17 35° SE 21:20:20 52° E 21:26:03 10° NNE
JB-3 4.1 21:21:19 10° NNE 21:25:14 82° ESE 21:25:57 57° S
ATLAS 5 CENTAUR R/B 2.7 21:19:56 10° NW 21:25:38 62° WSW 21:28:41 32° S
Cosmos 1538 Rocket 4.3 21:22:01 10° NNW 21:27:17 54° ENE 21:28:51 40° ESE
Cosmos 2084 3.6 21:23:43 10° SW 21:27:49 69° NW 21:32:03 10° NNE
Meteor 1-5 Rocket 4.0 21:23:42 10° N 21:29:06 71° ENE 21:30:46 44° SSE
OE (NEXTSAT) 4.5 21:26:26 10° WNW 21:29:54 65° NNE 21:30:07 63° NE
Milstar 3 4.1 21:19:12 10° SW 21:30:26 32° S 21:32:20 29° SSE
Cosmos 1666 2.8 21:31:26 10° N 21:34:56 57° ENE 21:34:56 57° ENE
Cosmos 1515 Rocket 3.5 21:34:01 49° S 21:35:11 89° W 21:39:37 10° N
Cosmos 773 Rocket 4.2 21:31:53 10° NNW 21:37:10 68° WSW 21:38:58 41° S
Cosmos 1833 Rocket 2.7 21:32:06 10° NNW 21:37:46 74° ENE 21:39:27 46° SE
Spot 2 Rocket 3.7 21:36:58 37° S 21:38:53 64° WSW 21:43:55 10° NNW
Cosmos 1869 Rocket 4.5 21:37:26 10° N 21:41:16 33° ENE 21:41:16 33° ENE
SPOT 5 2.9 21:41:10 50° SSE 21:42:32 89° E 21:47:47 10° NNW
BREEZE-M DEB (TANK) 4.1 21:39:36 10° WNW 21:44:29 27° SW 21:44:32 27° SW
ARIANE 5 R/B 3.1 21:43:44 42° SSW 21:44:48 54° W 21:49:03 10° NNW
Terra 1.8 21:45:33 59° SE 21:46:17 70° ENE 21:51:02 10° N
ERS-1 Rocket 3.0 21:50:41 51° S 21:51:55 73° WSW 21:56:57 10° NNW
Cosmos 1470 Rocket 4.4 21:51:59 10° NNW 21:56:15 45° W 21:57:20 37° SW
X-37B 2.8 21:55:15 10° W 21:56:32 21° W 21:56:32 21° W
Cosmos 2154 Rocket 4.1 21:52:24 10° N 21:58:42 63° E 22:00:11 49° SE
USA 305 3.5 22:01:07 10° NW 22:05:16 49° NNE 22:05:35 48° NE
Cosmos 2184 Rocket 4.0 22:00:16 10° N 22:06:31 80° W 22:08:18 49° S
Cosmos 1933 Rocket 4.1 22:06:32 10° NNW 22:10:43 47° W 22:11:03 46° WSW
Meteor 1-27 Rocket 3.7 22:12:02 62° SSE 22:13:01 78° E 22:18:56 10° NNE
Cosmos 2074 Rocket 4.1 22:07:01 10° NNW 22:13:16 69° W 22:15:13 45° SSW
Cosmos 2082 Rocket 2.1 22:07:43 10° NNW 22:13:21 73° ENE 22:14:08 63° ESE
COSMOS 2406 3.4 22:08:09 10° NNW 22:13:42 58° WSW 22:14:42 50° SSW
Meteor 2-12 Rocket 4.3 22:08:28 10° N 22:14:34 90° NNE 22:15:49 59° S
Nadezhda 1 Rocket 3.9 22:16:05 53° S 22:17:44 89° ESE 22:24:02 10° N
Cosmos 1898 Rocket 4.0 22:20:54 46° ENE 22:20:54 46° ENE 22:25:19 10° NNE
Cosmos 923 Rocket 4.0 22:15:04 10° NNW 22:20:20 68° ENE 22:20:38 67° E
Cosmos 1271 Rocket 3.7 22:21:48 44° WNW 22:21:48 44° WNW 22:25:38 10° N
USA 306 3.3 22:20:15 10° NW 22:24:02 59° N 22:24:02 59° N
SJ 16-02 2.5 22:29:06 34° W 22:30:05 39° WNW 22:34:17 10° N
Cosmos 1733 Rocket 4.2 22:29:10 10° N 22:32:19 34° NE 22:32:19 34° NE
Cosmos 2181 Rocket 4.4 22:34:44 45° E 22:34:53 45° E 22:40:41 10° NNE
Cosmos 1610 Rocket 4.5 22:29:30 10° NNW 22:35:37 72° W 22:36:41 59° SSW
Cosmos 2278 Rocket 3.4 22:31:49 13° WSW 22:36:22 38° WNW 22:41:38 10° N
Meteor 1-11 Rocket 4.1 22:33:27 10° NNW 22:39:17 57° W 22:40:16 50° SW
Cosmos 2228 Rocket 3.9 22:39:25 43° W 22:39:32 43° WNW 22:43:47 10° N
Cosmos 1238 Rocket 4.0 22:33:32 10° N 22:39:39 53° ENE 22:39:54 52° E
Cosmos 990 Rocket 3.9 22:40:06 86° NNE 22:40:06 86° NNE 22:45:16 10° NNE
Cosmos 1340 Rocket 3.8 22:40:30 10° N 22:43:27 47° N 22:43:27 47° N
Cosmos 2369 Rocket 3.7 22:48:04 23° ENE 22:48:04 23° ENE 22:51:07 10° NE
Cosmos 2366 rocket 4.3 22:43:08 10° N 22:49:07 50° ENE 22:49:36 49° E
NOSS 3-4 (A) 3.8 22:42:26 10° NW 22:49:32 74° WSW 22:50:58 59° S
NOSS 3-4 (C) 3.8 22:42:33 10° NW 22:49:39 74° WSW 22:51:05 60° S
Cosmos 967 Rocket 4.4 22:49:56 68° ESE 22:49:56 68° ESE 22:56:03 10° NE
USA 307 4.0 22:46:00 10° NW 22:48:53 42° NW 22:48:53 42° NW
Cosmos 2341 Rocket 3.9 22:44:38 10° N 22:51:05 81° E 22:51:45 72° SE
Cosmos 1943 Rocket 2.6 22:52:38 51° ENE 22:52:38 51° ENE 22:57:17 10° NNE
Cosmos 1536 4.3 22:52:16 10° NNW 22:55:05 33° WNW 22:55:05 33° WNW
Meteor 2-9 Rocket 4.5 22:50:49 10° N 22:56:32 56° ENE 22:56:34 56° ENE
Cosmos 2112 Rocket 4.0 22:53:44 10° NNW 22:58:49 80° NW 22:58:49 80° NW
USA 215 4.2 22:57:12 16° E 23:02:04 43° NNE 23:08:10 10° NW
ATLAS 2AS CENTAUR R/B 2.6 22:55:50 10° NW 23:03:13 85° NE 23:04:17 67° SE
USA 308 4.4 22:59:32 10° NW 23:01:54 32° WNW 23:01:54 32° WNW
CZ-4C R/B 3.9 23:00:59 10° NW 23:07:42 35° WSW 23:08:59 33° SW
Cosmos 2218 Rocket 3.9 23:02:24 10° N 23:08:41 73° E 23:09:04 71° ESE
Meteor 2-4 Rocket 4.4 23:09:23 44° ENE 23:09:23 44° ENE 23:14:14 10° NNE
Cosmos 1975 4.5 23:05:58 10° N 23:08:17 30° NNE 23:08:17 30° NNE
SL-24 R/B - RUBIN 2 4.1 23:04:25 10° NNW 23:09:19 67° N 23:09:19 67° N
Terra 4.2 23:24:26 13° W 23:24:31 13° W 23:26:41 10° WNW
Cosmos 1937 Rocket 3.8 23:26:03 60° NW 23:26:03 60° NW 23:30:52 10° NNE
Cosmos 1680 Rocket 4.4 23:21:48 10° NNW 23:26:06 40° W 23:26:06 40° W
Meteor 1-18 Rocket 4.2 23:27:33 80° NW 23:27:33 80° NW 23:32:57 10° N
Cosmos 2297 4.2 23:32:11 49° W 23:32:52 52° WNW 23:38:26 10° NNE
ALOS 2 3.6 23:36:53 44° NNW 23:36:53 44° NNW 23:39:56 10° NNW
SL-8 Rocket 4.2 23:29:55 10° NNW 23:36:08 60° W 23:36:25 59° WSW
Cosmos 1818 3.7 23:31:57 10° NNW 23:36:53 71° NNW 23:36:53 71° NNW
Thor Agena Rocket 4.1 23:32:25 10° NNE 23:36:39 49° ENE 23:36:39 49° ENE
DNEPR-1 R/B 4.4 23:39:47 62° WNW 23:39:56 63° NW 23:44:58 10° NNE
Okean 1-7 4.4 23:42:48 34° NNE 23:42:48 34° NNE 23:45:21 10° NNE
SL-08 R/B 4.4 23:41:08 10° N 23:47:23 82° E 23:47:30 81° ESE
